This is the latest recevied weather packets stored in our database for station/object AA4OM-2. If no packets are shown the sender has not sent any weather packets the latest 1 day(s).
| Time | Temp. | Humidity | Pressure | Rain* | Wind** | Luminosity | Snow |
|---|---|---|---|---|---|---|---|
| 1778031632 | 17.22° C | 97% | 1007.6 hPa | 0 mm | - | 0 W/m² | - |
| 1778031330 | 17.22° C | 97% | 1007.6 hPa | 0 mm | - | 0 W/m² | - |
| 1778031027 | 17.22° C | 97% | 1007.4 hPa | 0 mm | - | 0 W/m² | - |
| 1778030723 | 17.22° C | 97% | 1007.6 hPa | 0 mm | - | 0 W/m² | - |
| 1778030420 | 17.22° C | 97% | 1007.3 hPa | 0 mm | - | 0 W/m² | - |
| 1778030118 | 17.22° C | 97% | 1007.4 hPa | 1.78 mm | - | 0 W/m² | - |
| 1778029814 | 17.22° C | 97% | 1007.6 hPa | 1.78 mm | - | 0 W/m² | - |
| 1778029514 | 17.22° C | 97% | 1007.7 hPa | 0 mm | - | 0 W/m² | - |
| 1778029210 | 17.22° C | 97% | 1007.7 hPa | 0 mm | - | 0 W/m² | - |
| 1778028907 | 17.22° C | 97% | 1007.7 hPa | 0 mm | - | 0 W/m² | - |
| 1778027996 | 17.22° C | 97% | 1008 hPa | 0 mm | - | 0 W/m² | - |
| 1778027693 | 17.22° C | 97% | 1007.9 hPa | 0 mm | - | 1 W/m² | - |
| 1778027389 | 17.22° C | 97% | 1008 hPa | 0 mm | - | 1 W/m² | - |
| 1778026478 | 17.22° C | 97% | 1008 hPa | 0 mm | - | 4 W/m² | - |
| 1778025873 | 17.22° C | 97% | 1008.3 hPa | 0 mm | - | 3 W/m² | - |
| 1778024662 | 17.22° C | 97% | 1008.1 hPa | 1.78 mm | - | 13 W/m² | - |
| 1778023451 | 17.22° C | 96% | 1008.5 hPa | 0 mm | - | 8 W/m² | - |
| 1778020724 | 17.22° C | 96% | 1008.8 hPa | 0 mm | - | 28 W/m² | - |
| 1778020421 | 17.22° C | 96% | 1008.7 hPa | 0 mm | - | 33 W/m² | - |
| 1778019813 | 17.22° C | 96% | 1008.8 hPa | 1.78 mm | - | 45 W/m² | - |
| 1778019207 | 16.67° C | 96% | 1008.9 hPa | 0 mm | - | 41 W/m² | - |
| 1778018601 | 16.67° C | 95% | 1008.9 hPa | 1.27 mm | - | 34 W/m² | - |
| 1778017392 | 17.22° C | 94% | 1008.8 hPa | 0 mm | - | 44 W/m² | - |
| 1778016482 | 17.22° C | 93% | 1008.9 hPa | 0 mm | - | 40 W/m² | - |
| 1778014967 | 18.33° C | 85% | 1009.1 hPa | 1.27 mm | - | 35 W/m² | - |
* Rain latest hour (hover to see other rain measurements)
** Current wind speed in m/s (hover to see current wind gust speed)